When you browse on this site, cookies collect data to enhance your experience and personalize the content and advertising you see.
Visit our Privacy Policy to learn more. By continuing to use the site, you agree to this use of cookies and data.
  • In Österreich
  • Länderverzeichnis
  • Für 7 Tage
  • Wassertemperatur
  • Satellitenkarten
  • Wetterkarte
  • News
  • Widgets
  • user-avatar
    Anmelden

    Stündliche Wetter Bogdanow

    Heute, 19 April, Freitag

    Zeit Temperatur Niederschläge Wind Luftdruck Luftfeuchtigkeit
    00:00 +10°C° 0 mm 2 m/S 763 mmHg 63%
    01:00 +9°C° 0 mm 2 m/S 763 mmHg 68%
    02:00 +9°C° 0 mm 2 m/S 763 mmHg 70%
    03:00 +8°C° 0 mm 2 m/S 763 mmHg 73%
    04:00 +8°C° 0 mm 2 m/S 763 mmHg 75%
    05:00 +9°C° 0 mm 2 m/S 763 mmHg 73%
    06:00 +10°C° 0 mm 2 m/S 764 mmHg 71%
    07:00 +12°C° 0 mm 2 m/S 764 mmHg 69%
    08:00 +14°C° 0 mm 2 m/S 764 mmHg 62%
    09:00 +16°C° 0 mm 3 m/S 764 mmHg 55%
    10:00 +18°C° 0 mm 3 m/S 764 mmHg 49%
    11:00 +19°C° 0 mm 3 m/S 764 mmHg 45%
    12:00 +19°C° 0 mm 3 m/S 764 mmHg 42%
    13:00 +20°C° 0 mm 3 m/S 763 mmHg 38%
    14:00 +20°C° 0 mm 3 m/S 763 mmHg 38%
    15:00 +20°C° 0 mm 3 m/S 763 mmHg 38%
    16:00 +20°C° 0 mm 3 m/S 763 mmHg 38%
    17:00 +18°C° 0 mm 3 m/S 763 mmHg 42%
    18:00 +16°C° 0 mm 2 m/S 762 mmHg 46%
    19:00 +14°C° 0 mm 2 m/S 762 mmHg 50%
    20:00 +13°C° 0 mm 2 m/S 763 mmHg 52%
    21:00 +12°C° 0 mm 2 m/S 763 mmHg 53%
    22:00 +12°C° 0 mm 2 m/S 763 mmHg 54%
    23:00 +10°C° 0 mm 2 m/S 763 mmHg 59%

    Morgen, 20 April, Samstag

    Zeit Temperatur Niederschläge Wind Luftdruck Luftfeuchtigkeit
    00:00 +9°C° 0 mm 2 m/S 763 mmHg 63%
    01:00 +9°C° 0 mm 1 m/S 763 mmHg 68%
    02:00 +9°C° 0 mm 1 m/S 763 mmHg 71%
    03:00 +8°C° 0 mm 1 m/S 762 mmHg 75%
    04:00 +8°C° 0 mm 1 m/S 762 mmHg 79%
    05:00 +8°C° 0 mm 2 m/S 762 mmHg 75%
    06:00 +9°C° 0 mm 2 m/S 762 mmHg 71%
    07:00 +10°C° 0 mm 2 m/S 762 mmHg 68%
    08:00 +12°C° 0 mm 2 m/S 762 mmHg 59%
    09:00 +14°C° 0 mm 2 m/S 762 mmHg 49%
    10:00 +16°C° 0 mm 3 m/S 761 mmHg 40%
    11:00 +17°C° 0 mm 3 m/S 761 mmHg 37%
    12:00 +17°C° 0 mm 3 m/S 761 mmHg 33%
    13:00 +18°C° 0 mm 4 m/S 760 mmHg 29%
    14:00 +18°C° 0 mm 3 m/S 760 mmHg 31%
    15:00 +18°C° 0 mm 3 m/S 760 mmHg 32%
    16:00 +17°C° 0 mm 3 m/S 759 mmHg 34%
    17:00 +16°C° 0 mm 2 m/S 759 mmHg 40%
    18:00 +14°C° 0 mm 2 m/S 759 mmHg 47%
    19:00 +12°C° 0 mm 2 m/S 759 mmHg 53%
    20:00 +12°C° 0 mm 2 m/S 759 mmHg 58%
    21:00 +10°C° 0 mm 3 m/S 759 mmHg 63%
    22:00 +9°C° 0 mm 3 m/S 759 mmHg 67%
    23:00 +8°C° 0 mm 3 m/S 759 mmHg 68%

    übermorgen, 21 April, Sonntag

    Zeit Temperatur Niederschläge Wind Luftdruck Luftfeuchtigkeit
    00:00 +7°C° 0 mm 2 m/S 759 mmHg 69%
    01:00 +7°C° 0 mm 2 m/S 759 mmHg 69%
    02:00 +6°C° 0 mm 2 m/S 758 mmHg 69%
    03:00 +6°C° 0 mm 2 m/S 758 mmHg 69%
    04:00 +5°C° 0 mm 2 m/S 758 mmHg 69%
    05:00 +6°C° 0 mm 2 m/S 758 mmHg 66%
    06:00 +7°C° 0 mm 2 m/S 758 mmHg 63%
    07:00 +8°C° 0 mm 2 m/S 757 mmHg 60%
    08:00 +10°C° 0 mm 2 m/S 757 mmHg 55%
    09:00 +13°C° 0 mm 2 m/S 757 mmHg 50%
    10:00 +15°C° 0 mm 2 m/S 757 mmHg 45%
    11:00 +16°C° 0 mm 3 m/S 756 mmHg 42%
    12:00 +16°C° 0 mm 3 m/S 756 mmHg 39%
    13:00 +17°C° 0 mm 3 m/S 755 mmHg 36%
    14:00 +17°C° 0 mm 3 m/S 755 mmHg 36%
    15:00 +17°C° 0 mm 3 m/S 755 mmHg 36%
    16:00 +18°C° 0 mm 3 m/S 754 mmHg 37%
    17:00 +16°C° 0 mm 2 m/S 754 mmHg 41%
    18:00 +14°C° 0 mm 1 m/S 754 mmHg 46%
    19:00 +11°C° 0 mm 0 m/S 754 mmHg 51%
    20:00 +12°C° 0 mm 1 m/S 754 mmHg 51%
    21:00 +12°C° 0 mm 1 m/S 754 mmHg 51%
    22:00 +10°C° 0 mm 2 m/S 754 mmHg 51%
    23:00 +10°C° 0 mm 2 m/S 754 mmHg 53%

    22 April, Montag

    Zeit Temperatur Niederschläge Wind Luftdruck Luftfeuchtigkeit
    00:00 +9°C° 0 mm 2 m/S 753 mmHg 55%
    01:00 +9°C° 0 mm 2 m/S 753 mmHg 57%
    02:00 +8°C° 0 mm 2 m/S 753 mmHg 64%
    03:00 +8°C° 0 mm 2 m/S 753 mmHg 71%
    04:00 +7°C° 0 mm 2 m/S 752 mmHg 77%
    05:00 +7°C° 0.5 mm 2 m/S 752 mmHg 80%
    06:00 +7°C° 0.5 mm 2 m/S 752 mmHg 83%
    07:00 +8°C° 0.5 mm 2 m/S 752 mmHg 86%
    08:00 +8°C° 0.9 mm 3 m/S 752 mmHg 86%
    09:00 +7°C° 0.9 mm 4 m/S 752 mmHg 85%
    10:00 +8°C° 0.9 mm 4 m/S 752 mmHg 85%
    11:00 +9°C° 0.7 mm 5 m/S 752 mmHg 79%
    12:00 +12°C° 0.7 mm 5 m/S 751 mmHg 72%
    13:00 +13°C° 0.7 mm 5 m/S 751 mmHg 66%
    14:00 +14°C° 0.1 mm 6 m/S 751 mmHg 62%
    15:00 +15°C° 0.1 mm 6 m/S 750 mmHg 58%
    16:00 +16°C° 0.1 mm 6 m/S 750 mmHg 54%
    17:00 +14°C° 1.8 mm 6 m/S 750 mmHg 65%
    18:00 +13°C° 1.8 mm 5 m/S 750 mmHg 75%
    19:00 +11°C° 1.8 mm 4 m/S 750 mmHg 86%
    20:00 +10°C° 0.8 mm 6 m/S 749 mmHg 84%
    21:00 +10°C° 0.8 mm 7 m/S 749 mmHg 83%
    22:00 +11°C° 0.8 mm 8 m/S 749 mmHg 82%
    23:00 +10°C° 0 mm 8 m/S 749 mmHg 82%

    23 April, Dienstag

    Zeit Temperatur Niederschläge Wind Luftdruck Luftfeuchtigkeit
    00:00 +10°C° 0 mm 8 m/S 749 mmHg 81%
    01:00 +10°C° 0 mm 7 m/S 749 mmHg 80%
    02:00 +10°C° 0.1 mm 8 m/S 748 mmHg 80%
    03:00 +10°C° 0.1 mm 8 m/S 748 mmHg 79%
    04:00 +10°C° 0.1 mm 8 m/S 748 mmHg 79%
    05:00 +10°C° 0.8 mm 8 m/S 748 mmHg 78%
    06:00 +10°C° 0.8 mm 8 m/S 749 mmHg 78%
    07:00 +10°C° 0.8 mm 7 m/S 749 mmHg 78%
    08:00 +11°C° 0.3 mm 8 m/S 749 mmHg 74%
    09:00 +12°C° 0.3 mm 8 m/S 749 mmHg 70%
    10:00 +13°C° 0.3 mm 8 m/S 749 mmHg 66%
    11:00 +16°C° 0 mm 8 m/S 749 mmHg 62%
    12:00 +17°C° 0 mm 9 m/S 749 mmHg 57%
    13:00 +18°C° 0 mm 9 m/S 748 mmHg 52%
    14:00 +17°C° 0 mm 9 m/S 748 mmHg 55%
    15:00 +16°C° 0 mm 8 m/S 748 mmHg 59%
    16:00 +16°C° 0 mm 8 m/S 748 mmHg 62%
    17:00 +15°C° 0 mm 8 m/S 748 mmHg 61%
    18:00 +14°C° 0 mm 7 m/S 748 mmHg 61%
    19:00 +12°C° 0 mm 7 m/S 748 mmHg 60%
    20:00 +11°C° 0 mm 7 m/S 749 mmHg 61%
    21:00 +11°C° 0 mm 6 m/S 749 mmHg 63%
    22:00 +12°C° 0 mm 5 m/S 749 mmHg 64%
    23:00 +12°C° 0 mm 5 m/S 749 mmHg 65%

    24 April, Mittwoch

    Zeit Temperatur Niederschläge Wind Luftdruck Luftfeuchtigkeit
    00:00 +10°C° 0 mm 5 m/S 749 mmHg 66%
    01:00 +10°C° 0 mm 5 m/S 749 mmHg 67%
    02:00 +9°C° 0 mm 5 m/S 749 mmHg 68%
    03:00 +9°C° 0 mm 5 m/S 749 mmHg 69%
    04:00 +9°C° 0 mm 5 m/S 750 mmHg 70%
    05:00 +10°C° 0 mm 5 m/S 750 mmHg 70%
    06:00 +12°C° 0 mm 5 m/S 750 mmHg 69%
    07:00 +13°C° 0 mm 5 m/S 750 mmHg 69%
    08:00 +15°C° 0 mm 5 m/S 750 mmHg 65%
    09:00 +16°C° 0 mm 5 m/S 750 mmHg 62%
    10:00 +19°C° 0 mm 5 m/S 751 mmHg 59%
    11:00 +20°C° 0 mm 5 m/S 751 mmHg 57%
    12:00 +21°C° 0 mm 5 m/S 751 mmHg 55%
    13:00 +22°C° 0 mm 5 m/S 751 mmHg 54%
    14:00 +21°C° 0.1 mm 4 m/S 751 mmHg 57%
    15:00 +21°C° 0.1 mm 3 m/S 751 mmHg 61%
    16:00 +20°C° 0.1 mm 3 m/S 751 mmHg 65%
    17:00 +19°C° 0 mm 3 m/S 751 mmHg 67%
    18:00 +18°C° 0 mm 2 m/S 751 mmHg 70%
    19:00 +17°C° 0 mm 2 m/S 751 mmHg 73%
    20:00 +16°C° 0 mm 2 m/S 752 mmHg 77%
    21:00 +15°C° 0 mm 2 m/S 752 mmHg 81%
    22:00 +14°C° 0 mm 2 m/S 752 mmHg 85%
    23:00 +14°C° 0 mm 2 m/S 752 mmHg 86%
    Mehr zeigen